Location: Unspecified
(0.0000°N, 0.0000°E)
Time: 17:12:21
(UTC+00:00)

FAST 2 (USA 228) - Visible Passes

Search period start: 30 November 2022 00:00
Search period end: 10 December 2022 00:00
Orbit: 618 x 641 km, 72.0° (Epoch: 29 November)

Date Brightness Start Highest point End Pass type
(mag) Time Alt. Az. Time Alt. Az. Time Alt. Az.
30 Nov ? 04:21:11 10° SSE 04:24:33 21° ESE 04:27:54 10° NE visible
01 Dec ? 04:40:49 10° S 04:45:13 62° ESE 04:49:35 10° NNE visible
02 Dec ? 05:01:38 10° SSW 05:05:51 42° WNW 05:10:03 10° N visible
03 Dec ? 03:44:03 10° SSE 03:47:29 22° ESE 03:50:53 10° NE visible
04 Dec ? 04:03:43 10° S 04:08:08 64° ESE 04:12:31 10° NNE visible
05 Dec ? 04:24:35 10° SW 04:28:47 41° WNW 04:28:48 41° WNW visible
06 Dec ? 03:06:55 10° SSE 03:07:22 12° SSE 03:07:22 12° SSE visible
